User: anonymous   Login
Location: Unspecified
(0.0000°N, 0.0000°E)
Time: 17:19:49
(UTC+00:00)
Language:

CSTB 1 - Orbit

View from above orbital plane
View from above orbital plane
View from above satellite
View from above satellite

Ground track
Ground track

The orbit is defined by the following mean orbital elements,

1 31122U          26106.27267628 +.00000000 +00000-0 +19820-3 0 00000
2 31122  98.4146 106.7079 0065779 102.0175 258.8414 14.72758792    07
Epoch (UTC): 16 April 2026 06:32:39
Eccentricity: 0.0065779
inclination: 98.4146°
perigee height: 606 km
apogee height: 699 km
right ascension of ascending node: 106.7079°
argument of perigee: 102.0175°
revolutions per day: 14.72758792
mean anomaly at epoch: 258.8414°

The dashed part of the orbit path shows where the satellite is in the earth's shadow,  

DLR